Regional Weather Roundup
Issued by NWS

Home | Current Version | Previous Version | Text Only | Print | Product List | Glossary On
Versions: 1 2 3 4 5 6 7 8 9 10 11 12 13 14 15 16 17 18 19 20 21 22 23 24 25 26 27 28 29 30 31 32 33 34 35 36 37 38 39 40 41 42 43 44 45 46 47 48 49 50
000
ASUS43 KDTX 191001
RWRMI
MICHIGAN HOURLY REGIONAL WEATHER ROUNDUP
NATIONAL WEATHER SERVICE DETROIT/PONTIAC MI
600 AM EDT THU OCT 19 2017

NOTE: "FAIR" INDICATES FEW OR NO CLOUDS BELOW 12,000 FEET WITH NO
SIGNIFICANT WEATHER AND/OR OBSTRUCTION TO VISIBILITY.

MIZ047>049-052>055-059>063-066>070-074>076-081>083-191100-
SOUTHEAST LOWER MICHIGAN

CITY           SKY/WX    TMP DP  RH WIND       PRES   REMARKS
ADRIAN         PTCLDY    48  43  82 SW8       30.09R
ALMA           PTCLDY    55  44  64 SW14      29.98R
ANN ARBOR      PTCLDY    46  42  86 S7        30.06R
BAD AXE        MOCLDY    57  42  57 SW12      29.96R
CARO           PTCLDY    55  43  63 SW9       29.97S
DETROIT CITY   PTCLDY    55  44  66 SW12G21   30.05F
DETROIT        CLEAR     53  44  71 SW15      30.07S
FLINT          PTCLDY    55  44  66 SW10      30.00S
GROSSE ILE     CLEAR     54  45  70 SW8       30.06S
HILLSDALE      PTCLDY    50  43  76 SW6       30.06S
HOWELL         PTCLDY    54  45  71 SW6       30.02F

CITY           SKY/WX    TMP DP  RH WIND       PRES   REMARKS
JACKSON        CLEAR     55  44  66 SW15      30.05R
LAMBERTVILLE   PTCLDY    56  45  65 SW7       30.09R
LANSING        PTCLDY    54  44  69 SW13      30.01S
LAPEER         FAIR      55  43  64 SW10      30.00S
MASON          PTCLDY    55  45  67 SW7       30.03S
MONROE         PTCLDY    57  44  61 SW12      30.07S
MT. CLEMENS    CLOUDY    55  45  68 SW12      30.02S
PONTIAC        MOCLDY    50  44  80 S7        30.02F
PORT HOPE        N/A     58  44  60 SW9G20    29.92R
PORT HURON     PTCLDY    57  43  58 S8        30.02S
TRI CITIES     PTCLDY    56  46  69 SW15      29.97R
MIDLAND        FAIR      53  44  72 SW6       29.95S
TROY           PTCLDY    53  42  66 SW10      30.05F
SAGINAW HB     PTCLDY    54  45  71 SW12G17   29.97R
$$
MIZ043>046-050>051-056>058-064>065-071>073-077>080-191100-
SOUTHWEST LOWER MICHIGAN

CITY           SKY/WX    TMP DP  RH WIND       PRES   REMARKS
BATTLE CREEK   CLEAR     53  45  74 SW15      30.04S
BENTON HARBOR  CLEAR     56  46  69 SW8       30.05R
BIG RAPIDS     CLOUDY    54  46  72 W8        29.97R
COLDWATER      CLEAR     52  45  75 SW8       30.07S
FREMONT        FAIR      57  48  72 W7        29.98S
HOLLAND        CLEAR     60  52  74 W15       30.03R
GRAND RAPIDS   CLOUDY    55  48  77 SW13      30.01R
IONIA          FAIR      56  45  66 SW13G18   29.99S
KALAMAZOO      CLEAR     50  44  80 S9        30.05R
LUDINGTON      CLOUDY    57  37  47 NW7       29.97R
MARSHALL       CLEAR     52  44  75 SW6       30.05R
MOUNT PLEASANT CLOUDY    58  47  66 SW9       29.95S
MUSKEGON       CLEAR     60  49  66 W13       30.01R
SOUTH HAVEN    PTCLDY    59  50  73 SW15G21   30.04R
$$
MIZ016>042-191100-
NORTHERN LOWER MICHIGAN

CITY           SKY/WX    TMP DP  RH WIND       PRES   REMARKS
ALPENA         PTCLDY    58  47  66 SW9       29.87R
BEAVER ISLAND  CLOUDY    56  29  36 W14G23    29.89R
BELLAIRE       CLOUDY    58  41  52 W5        29.92R
CADILLAC       CLOUDY    55  46  69 W8        29.94R
CHARLEVOIX     CLOUDY    57  31  36 W15G25    29.93R
FRANKFORT      CLOUDY    59  32  36 NW14G20   29.95R
GAYLORD        CLOUDY    55  45  68 W13       29.89R
GRAYLING       CLOUDY    55  44  68 W7        29.91R
HARBOR SPRINGS CLOUDY    56  27  33 W9        29.89R
HOUGHTON LAKE  CLOUDY    55  46  71 SW9       29.93R
OSCODA         CLOUDY    55  43  65 SW13      29.89F
PELLSTON       CLOUDY    56  33  42 W10       29.88R
ROGERS CITY    PTCLDY    56  46  70 W6        29.86R
TRAVERSE CITY  CLOUDY    58  43  57 W12       29.92R
$$
MIZ007>008-015-191100-
EASTERN UPPER MICHIGAN

CITY           SKY/WX    TMP DP  RH WIND       PRES   REMARKS
KINROSS        CLEAR     49  29  46 W7        29.84R
MACKINAC ISLAN CLOUDY    56  32  40 W10G20    29.86R
NEWBERRY       CLEAR     46  29  51 W8        29.86R
S. S. MARIE    CLEAR     55  33  43 W13G23    29.81R
MUNISING         N/A     49  26  41 SW7       29.86R
$$
MIZ004>006-011>014-085-191100-
CENTRAL UPPER MICHIGAN

CITY           SKY/WX    TMP DP  RH WIND       PRES   REMARKS
MANISTIQUE     PTCLDY    48  16  28 CALM      29.88S
ESCANABA       CLOUDY    45  28  51 W5        29.92R
MENOMINEE      CLOUDY    50  24  36 W5        29.97R
SAWYER-GWINN   CLOUDY    45  21  39 SW6       29.89S
$$
MIZ001>003-009>011-084-191100-
WESTERN UPPER MICHIGAN

CITY           SKY/WX    TMP DP  RH WIND       PRES   REMARKS
IRON MOUNTAIN  CLOUDY    48  18  30 W5        29.91R
HOUGHTON       LGT RAIN  51  30  44 W24G36    29.80R
COPPER HARBOR    N/A     53  25  33 NW15G26   29.78R
IRONWOOD       CLOUDY    47  23  38 W13       29.93R
$$

ABBREVIATIONS USED IN REMARKS
   TC - TEMPERATURE IN CELSIUS
  WCI - WIND CHILL INDEX
   HX - HEAT INDEX
  VSB - VISIBILITY





USA.gov is the U.S. government's official web portal to all federal, state and local government web resources and services.